Zurück zum Katalog

STARLINK-35425

AktivKommunikationVLEO
NORAD 65874·PAYLOAD·🇺🇸 United States

Gestartet Oct 3, 2025 von Vandenberg Space Force Base

Loading…

Nächste Überflüge (nächste 24 Stunden)

TLE

AktuellSource: CelesTrak SupGP

Epoche: Sep 14, 2026, 14:42 UTC

1 65874C 25223W   26257.61298611  .00044122  00000+0  13032-2 0  2570
2 65874  53.1576 133.3415 0001356  91.3107  38.4570 15.34377198    11

Verfolge STARLINK-35425 in Echtzeit mit AllMySat

Download on the App Store